DB0RV-13 Weather Reports


Display with metric or nautical units.
time (UTC)temp
F
wind
direction
speed
MPH
gust
MPH
rain 1hr
in
rain 24hr
in
rain mn
in
humidity
%
barometer
mb
20260906114002 72 59 4.0 0.0 0.00 0.00 0.00 47 1024.0
20260906113501 73 70 7.0 0.0 0.00 0.00 0.00 45 1023.9
20260906113002 73 69 8.0 0.0 0.00 0.00 0.00 45 1024.0
20260906112501 72 86 7.0 0.0 0.00 0.00 0.00 46 1024.0
20260906112002 72 64 4.0 0.0 0.00 0.00 0.00 47 1024.1
20260906111501 72 51 9.0 0.0 0.00 0.00 0.00 47 1024.1
20260906111002 72 53 9.0 0.0 0.00 0.00 0.00 47 1024.2
20260906110501 72 109 7.0 0.0 0.00 0.00 0.00 48 1024.2
20260906110001 72 94 7.0 0.0 0.00 0.00 0.00 50 1024.1
20260906105502 72 56 4.0 0.0 0.00 0.00 0.00 47 1024.1
20260906105002 72 103 9.0 0.0 0.00 0.00 0.00 47 1024.2
20260906104502 71 94 8.0 0.0 0.00 0.00 0.00 49 1024.2
20260906104001 71 31 9.0 0.0 0.00 0.00 0.00 49 1024.2
20260906103502 70 81 10.0 0.0 0.00 0.00 0.00 49 1024.1
20260906103001 70 46 11.0 0.0 0.00 0.00 0.00 50 1024.3
20260906102502 70 71 7.0 0.0 0.00 0.00 0.00 50 1024.4
20260906102001 70 40 9.0 0.0 0.00 0.00 0.00 49 1024.5
20260906101502 70 45 11.0 0.0 0.00 0.00 0.00 49 1024.5
20260906101002 70 69 4.0 0.0 0.00 0.00 0.00 50 1024.6
20260906100501 70 35 7.0 0.0 0.00 0.00 0.00 51 1024.7
20260906100002 70 74 11.0 0.0 0.00 0.00 0.00 52 1024.6
20260906095502 69 51 6.0 0.0 0.00 0.00 0.00 51 1024.6
20260906095002 69 55 6.0 0.0 0.00 0.00 0.00 54 1024.7
20260906094501 70 28 7.0 0.0 0.00 0.00 0.00 54 1024.7
20260906094002 69 50 6.0 0.0 0.00 0.00 0.00 58 1024.8
20260906093501 68 87 7.0 0.0 0.00 0.00 0.00 59 1024.9
20260906093002 68 36 5.0 0.0 0.00 0.00 0.00 59 1024.9
20260906092502 67 48 9.0 0.0 0.00 0.00 0.00 60 1025.0
20260906092001 67 88 10.0 0.0 0.00 0.00 0.00 61 1024.9
20260906091502 66 63 6.0 0.0 0.00 0.00 0.00 63 1024.9
20260906091001 66 28 6.0 0.0 0.00 0.00 0.00 64 1024.9
20260906090502 66 34 9.0 0.0 0.00 0.00 0.00 67 1024.8
20260906090001 65 19 8.0 0.0 0.00 0.00 0.00 69 1024.9
20260906085502 65 26 5.0 0.0 0.00 0.00 0.00 70 1025.0
20260906085001 64 41 9.0 0.0 0.00 0.00 0.00 70 1024.8
20260906084502 64 47 6.0 0.0 0.00 0.00 0.00 72 1024.9
20260906084002 63 32 9.0 0.0 0.00 0.00 0.00 71 1024.9
20260906083502 63 31 10.0 0.0 0.00 0.00 0.00 71 1025.0
20260906083002 62 29 5.0 0.0 0.00 0.00 0.00 72 1025.0
20260906082501 62 39 7.0 0.0 0.00 0.00 0.00 73 1024.9
20260906082002 62 59 9.0 0.0 0.00 0.00 0.00 73 1025.0
20260906081501 62 31 7.0 0.0 0.00 0.00 0.00 72 1025.0
20260906081002 62 56 7.0 0.0 0.00 0.00 0.00 73 1025.0
20260906080501 62 34 7.0 0.0 0.00 0.00 0.00 73 1025.2
20260906080002 61 44 4.0 0.0 0.00 0.00 0.00 75 1025.2
20260906075501 61 49 6.0 0.0 0.00 0.00 0.00 75 1025.2
20260906075002 61 31 6.0 0.0 0.00 0.00 0.00 75 1025.3
20260906074501 60 54 6.0 0.0 0.00 0.00 0.00 76 1025.2
20260906074002 60 46 6.0 0.0 0.00 0.00 0.00 77 1025.2
20260906073502 60 37 7.0 0.0 0.00 0.00 0.00 79 1025.0
20260906073001 59 36 6.0 0.0 0.00 0.00 0.00 80 1025.0
20260906072502 59 51 7.0 0.0 0.00 0.00 0.00 81 1025.0
20260906072001 58 46 9.0 0.0 0.00 0.00 0.00 81 1024.9
20260906071502 58 46 8.0 0.0 0.00 0.00 0.00 82 1025.1
20260906071001 58 44 6.0 0.0 0.00 0.00 0.00 83 1024.9
20260906070502 57 61 5.0 0.0 0.00 0.00 0.00 83 1025.0
20260906070001 57 30 5.0 0.0 0.00 0.00 0.00 84 1024.9
20260906065501 57 50 8.0 0.0 0.00 0.00 0.00 84 1024.8
20260906065002 56 43 7.0 0.0 0.00 0.00 0.00 85 1025.0
20260906064502 56 46 6.0 0.0 0.00 0.00 0.00 86 1024.9
20260906064001 56 49 6.0 0.0 0.00 0.00 0.00 86 1024.9
20260906063502 55 43 5.0 0.0 0.00 0.00 0.00 86 1024.9
20260906063002 55 48 8.0 0.0 0.00 0.00 0.00 87 1025.0
20260906062501 55 50 5.0 0.0 0.00 0.00 0.00 86 1024.9
20260906062002 54 49 5.0 0.0 0.00 0.00 0.00 87 1024.8
20260906061501 54 40 6.0 0.0 0.00 0.00 0.00 87 1024.8
20260906061002 54 45 6.0 0.0 0.00 0.00 0.00 87 1024.8
20260906060501 53 28 6.0 0.0 0.00 0.00 0.00 86 1024.8
20260906060002 54 27 6.0 0.0 0.00 0.00 0.00 85 1024.9
20260906055502 54 22 6.0 0.0 0.00 0.00 0.00 83 1024.8
20260906055002 55 21 6.0 0.0 0.00 0.00 0.00 81 1024.9
20260906054502 55 20 6.0 0.0 0.00 0.00 0.00 81 1024.9
20260906054001 55 26 4.0 0.0 0.00 0.00 0.00 81 1024.9
20260906053502 55 14 2.0 0.0 0.00 0.00 0.00 81 1024.9
20260906053001 54 3 4.0 0.0 0.00 0.00 0.00 82 1024.9
20260906052502 53 11 2.0 0.0 0.00 0.00 0.00 84 1024.8
20260906052001 52 25 6.0 0.0 0.00 0.00 0.00 85 1024.7
20260906051501 53 39 6.0 0.0 0.00 0.00 0.00 84 1024.6
20260906051002 53 36 6.0 0.0 0.00 0.00 0.00 84 1024.6
20260906050501 53 29 6.0 0.0 0.00 0.00 0.00 84 1024.6
20260906050002 53 25 6.0 0.0 0.00 0.00 0.00 83 1024.6
20260906045501 53 28 8.0 0.0 0.00 0.00 0.00 83 1024.5
20260906045002 54 25 7.0 0.0 0.00 0.00 0.00 82 1024.6
20260906044501 54 21 6.0 0.0 0.00 0.00 0.00 81 1024.8
20260906044002 54 12 4.0 0.0 0.00 0.00 0.00 83 1025.0
20260906043501 54 11 3.0 0.0 0.00 0.00 0.00 84 1024.9
20260906043002 54 3 3.0 0.0 0.00 0.00 0.00 85 1024.9
20260906042502 54 28 5.0 0.0 0.00 0.00 0.00 88 1024.8
20260906042002 53 44 4.0 0.0 0.00 0.00 0.00 89 1024.8
20260906041502 53 40 6.0 0.0 0.00 0.00 0.00 89 1024.7
20260906041001 54 40 6.0 0.0 0.00 0.00 0.00 88 1024.7
20260906040502 54 31 6.0 0.0 0.00 0.00 0.00 89 1024.7
20260906040002 54 37 6.0 0.0 0.00 0.00 0.00 88 1024.8
20260906035501 54 27 6.0 0.0 0.00 0.00 0.00 88 1024.8
20260906035002 54 28 6.0 0.0 0.00 0.00 0.00 86 1024.8
20260906034502 55 22 6.0 0.0 0.00 0.00 0.00 86 1024.9
20260906034001 56 18 4.0 0.0 0.00 0.00 0.00 86 1024.8
20260906033502 55 11 3.0 0.0 0.00 0.00 0.00 89 1024.6
20260906033002 55 21 7.0 0.0 0.00 0.00 0.00 91 1024.6
20260906032501 55 37 5.0 0.0 0.00 0.00 0.00 92 1024.7
20260906032002 55 30 6.0 0.0 0.00 0.00 0.00 91 1024.6
20260906031502 55 23 6.0 0.0 0.00 0.00 0.00 91 1024.7
20260906031001 55 17 4.0 0.0 0.00 0.00 0.00 90 1024.8
20260906030502 56 22 6.0 0.0 0.00 0.00 0.00 89 1024.7
20260906030002 56 16 5.0 0.0 0.00 0.00 0.00 90 1024.7
20260906025501 56 11 5.0 0.0 0.00 0.00 0.00 92 1024.7
20260906025002 55 34 5.0 0.0 0.00 0.00 0.00 93 1024.6
20260906024502 55 29 5.0 0.0 0.00 0.00 0.00 92 1024.5
20260906024001 55 32 5.0 0.0 0.00 0.00 0.00 93 1024.6
20260906023502 55 26 6.0 0.0 0.00 0.00 0.00 94 1024.5
20260906023002 55 29 5.0 0.0 0.00 0.00 0.00 95 1024.6
20260906022501 55 37 5.0 0.0 0.00 0.00 0.00 94 1024.5
20260906022002 55 25 6.0 0.0 0.00 0.00 0.00 93 1024.5
20260906021502 56 23 5.0 0.0 0.00 0.00 0.00 94 1024.4
20260906021001 55 31 5.0 0.0 0.00 0.00 0.00 94 1024.4
20260906020502 55 37 4.0 0.0 0.00 0.00 0.00 93 1024.4
20260906020002 55 28 4.0 0.0 0.00 0.00 0.00 93 1024.4
20260906015501 56 40 5.0 0.0 0.00 0.00 0.00 92 1024.5
20260906015002 56 47 4.0 0.0 0.00 0.00 0.00 91 1024.5
20260906014502 57 21 3.0 0.0 0.00 0.00 0.00 90 1024.4
20260906014001 57 5 3.0 0.0 0.00 0.00 0.00 90 1024.5
20260906013502 57 3 2.0 0.0 0.00 0.00 0.00 92 1024.4
20260906013002 56 22 5.0 0.0 0.00 0.00 0.00 93 1024.5
20260906012501 56 24 5.0 0.0 0.00 0.00 0.00 93 1024.5
20260906012002 56 22 4.0 0.0 0.00 0.00 0.00 93 1024.5
20260906011502 56 34 4.0 0.0 0.00 0.00 0.00 91 1024.4
20260906011003 57 26 4.0 0.0 0.00 0.00 0.00 90 1024.4
20260906010502 57 5 2.0 0.0 0.00 0.00 0.00 90 1024.4
20260906010002 57 21 4.0 0.0 0.00 0.00 0.00 90 1024.5
20260906005501 57 9 1.0 0.0 0.00 0.00 0.00 90 1024.5
20260906005002 58 28 2.0 0.0 0.00 0.00 0.00 91 1024.4
20260906004502 58 26 2.0 0.0 0.00 0.00 0.00 92 1024.5
20260906004001 57 28 3.0 0.0 0.00 0.00 0.00 94 1024.6
20260906003502 57 50 2.0 0.0 0.00 0.00 0.00 95 1024.4
20260906003002 56 111 1.0 0.0 0.00 0.00 0.00 94 1024.7
20260906002501 57 64 2.0 0.0 0.00 0.00 0.00 93 1024.7
20260906002002 57 45 2.0 0.0 0.00 0.00 0.00 94 1024.7
20260906001502 57 41 3.0 0.0 0.00 0.00 0.00 93 1024.6
20260906001001 57 37 3.0 0.0 0.00 0.00 0.00 94 1024.7
20260906000502 57 48 1.0 0.0 0.00 0.00 0.00 95 1024.6
20260906000002 57 4 2.0 0.0 0.00 0.00 0.00 96 1024.7
20260905235501 56 24 5.0 0.0 0.00 0.00 0.00 95 1024.5
20260905235002 56 29 4.0 0.0 0.00 0.00 0.00 95 1024.7
20260905234502 56 47 3.0 0.0 0.00 0.00 0.00 94 1024.7
20260905234001 56 37 2.0 0.0 0.00 0.00 0.00 94 1024.7
20260905233502 56 44 2.0 0.0 0.00 0.00 0.00 94 1024.8
20260905233002 57 47 2.0 0.0 0.00 0.00 0.00 93 1024.7
20260905232501 57 58 2.0 0.0 0.00 0.00 0.00 93 1024.6
20260905232002 58 55 3.0 0.0 0.00 0.00 0.00 92 1024.9
20260905231502 58 55 2.0 0.0 0.00 0.00 0.00 92 1024.8
20260905231001 58 65 2.0 0.0 0.00 0.00 0.00 92 1024.8
20260905230502 59 78 2.0 0.0 0.00 0.00 0.00 91 1024.8
20260905230002 59 42 2.0 0.0 0.00 0.00 0.00 91 1024.8
20260905225501 59 32 3.0 0.0 0.00 0.00 0.00 92 1024.7
20260905225001 59 44 2.0 0.0 0.00 0.00 0.00 91 1024.7
20260905224502 58 47 1.0 0.0 0.00 0.00 0.00 90 1024.8
20260905224001 59 46 1.0 0.0 0.00 0.00 0.00 89 1024.7
20260905223502 59 47 2.0 0.0 0.00 0.00 0.00 88 1024.8
20260905223002 59 49 1.0 0.0 0.00 0.00 0.00 89 1024.8
20260905222501 59 324 1.0 0.0 0.00 0.00 0.00 87 1024.7
20260905222002 60 328 2.0 0.0 0.00 0.00 0.00 85 1024.7
20260905221502 61 331 4.0 0.0 0.00 0.00 0.00 84 1024.7
20260905221001 62 329 2.0 0.0 0.00 0.00 0.00 83 1024.7
20260905220502 62 296 2.0 0.0 0.00 0.00 0.00 84 1024.7
20260905220002 60 308 2.0 0.0 0.00 0.00 0.00 87 1024.7
20260905215501 60 315 3.0 0.0 0.00 0.00 0.00 86 1024.6
20260905215002 61 316 3.0 0.0 0.00 0.00 0.00 85 1024.6
20260905214502 62 315 2.0 0.0 0.00 0.00 0.00 84 1024.6
20260905214001 62 313 1.0 0.0 0.00 0.00 0.00 84 1024.5
20260905213501 62 294 0.0 0.0 0.00 0.00 0.00 83 1024.6
20260905213002 62 299 0.0 0.0 0.00 0.00 0.00 83 1024.6
20260905212501 62 311 1.0 0.0 0.00 0.00 0.00 83 1024.5
20260905212002 62 307 1.0 0.0 0.00 0.00 0.00 82 1024.5
20260905211502 63 274 1.0 0.0 0.00 0.00 0.00 81 1024.5
20260905211001 62 0 0.0 0.0 0.00 0.00 0.00 82 1024.5
20260905210502 62 0 0.0 0.0 0.00 0.00 0.00 82 1024.4
20260905210002 62 295 1.0 0.0 0.00 0.00 0.00 83 1024.4
20260905205501 62 331 2.0 0.0 0.00 0.00 0.00 84 1024.4
20260905205001 62 313 3.0 0.0 0.00 0.00 0.00 83 1024.3
20260905204502 62 335 2.0 0.0 0.00 0.00 0.00 82 1024.4
20260905204001 62 0 0.0 0.0 0.00 0.00 0.00 83 1024.4
20260905203501 63 316 2.0 0.0 0.00 0.00 0.00 81 1024.3
20260905203002 64 317 0.0 0.0 0.00 0.00 0.00 79 1024.3
20260905202501 64 284 1.0 0.0 0.00 0.00 0.00 78 1024.3
20260905202001 64 229 1.0 0.0 0.00 0.00 0.00 79 1024.2
20260905201502 64 228 2.0 0.0 0.00 0.00 0.00 80 1024.2
20260905201001 64 236 1.0 0.0 0.00 0.00 0.00 79 1024.1
20260905200502 64 251 1.0 0.0 0.00 0.00 0.00 79 1024.1
20260905200002 64 276 1.0 0.0 0.00 0.00 0.00 79 1024.1
20260905195501 64 264 0.0 0.0 0.00 0.00 0.00 79 1024.2
20260905195002 64 222 1.0 0.0 0.00 0.00 0.00 78 1024.1
20260905194502 64 188 1.0 0.0 0.00 0.00 0.00 78 1024.1
20260905194001 64 186 1.0 0.0 0.00 0.00 0.00 79 1024.1
20260905193501 64 217 2.0 0.0 0.00 0.00 0.00 78 1024.1
20260905193002 64 237 1.0 0.0 0.00 0.00 0.00 78 1024.1
20260905192501 64 250 1.0 0.0 0.00 0.00 0.00 78 1024.0
20260905192002 64 217 0.0 0.0 0.00 0.00 0.00 77 1023.9
20260905191502 64 305 0.0 0.0 0.00 0.00 0.00 77 1023.9
20260905191001 64 261 1.0 0.0 0.00 0.00 0.00 79 1023.8
20260905190502 64 245 1.0 0.0 0.00 0.00 0.00 77 1023.8
20260905190002 64 244 3.0 0.0 0.00 0.00 0.00 76 1023.8
20260905185501 65 276 3.0 0.0 0.00 0.00 0.00 76 1023.7
20260905185001 65 299 2.0 0.0 0.00 0.00 0.00 76 1023.6
20260905184502 64 272 3.0 0.0 0.00 0.00 0.00 77 1023.5
20260905184001 64 247 3.0 0.0 0.00 0.00 0.00 80 1023.5
20260905183501 64 245 2.0 0.0 0.00 0.00 0.00 80 1023.5
20260905183002 64 244 2.0 0.0 0.00 0.00 0.00 80 1023.3
20260905182501 64 246 2.0 0.0 0.00 0.00 0.00 80 1023.3
20260905182002 64 250 3.0 0.0 0.00 0.00 0.00 80 1023.3
20260905181501 64 242 3.0 0.0 0.00 0.00 0.00 79 1023.2
20260905181002 65 241 2.0 0.0 0.00 0.00 0.00 79 1023.2
20260905180501 65 241 6.0 0.0 0.00 0.00 0.00 79 1023.1
20260905180003 65 243 3.0 0.0 0.00 0.00 0.00 78 1023.0
20260905175502 65 243 4.0 0.0 0.00 0.00 0.00 77 1023.0
20260905175002 65 266 2.0 0.0 0.00 0.00 0.00 77 1022.9
20260905174502 66 241 6.0 0.0 0.00 0.00 0.00 77 1022.8
20260905174001 66 248 5.0 0.0 0.00 0.00 0.00 77 1022.8
20260905173503 66 242 6.0 0.0 0.00 0.00 0.00 77 1022.7
20260905173001 66 225 3.0 0.0 0.00 0.00 0.00 77 1022.7
20260905172502 66 246 6.0 0.0 0.00 0.00 0.00 77 1022.7
20260905172001 66 237 7.0 0.0 0.00 0.00 0.00 77 1022.6
20260905171501 66 241 7.0 0.0 0.00 0.00 0.00 76 1022.7
20260905171002 66 240 8.0 0.0 0.00 0.00 0.00 76 1022.7
20260905170502 67 206 8.0 0.0 0.00 0.00 0.00 75 1022.6
20260905170002 67 240 7.0 0.0 0.00 0.00 0.00 74 1022.7
20260905165501 66 272 3.0 0.0 0.00 0.00 0.00 74 1022.6
20260905165002 67 241 9.0 0.0 0.00 0.00 0.00 74 1022.6
20260905164501 67 213 10.0 0.0 0.00 0.00 0.00 73 1022.6
20260905164001 66 254 5.0 0.0 0.00 0.00 0.00 73 1022.7
20260905163501 66 243 7.0 0.0 0.00 0.00 0.00 73 1022.6
20260905163001 66 244 8.0 0.0 0.00 0.00 0.00 73 1022.5
20260905162502 66 252 6.0 0.0 0.00 0.00 0.00 73 1022.6
20260905162002 66 223 6.0 0.0 0.00 0.00 0.00 72 1022.5
20260905161502 66 238 5.0 0.0 0.00 0.00 0.00 71 1022.4
20260905161001 66 212 6.0 0.0 0.00 0.00 0.00 71 1022.3
20260905160502 66 217 5.0 0.0 0.00 0.00 0.00 70 1022.4
20260905160001 66 225 7.0 0.0 0.00 0.00 0.00 70 1022.5
20260905155501 66 204 5.0 0.0 0.00 0.00 0.00 71 1022.5
20260905155001 66 187 4.0 0.0 0.00 0.00 0.00 72 1022.4
20260905154501 67 225 6.0 0.0 0.00 0.00 0.00 71 1022.4
20260905154002 67 225 5.0 0.0 0.00 0.00 0.00 70 1022.5
20260905153501 67 209 3.0 0.0 0.00 0.00 0.00 69 1022.4
20260905153002 66 206 6.0 0.0 0.00 0.00 0.00 69 1022.5
20260905152501 67 211 6.0 0.0 0.00 0.00 0.00 68 1022.5
20260905152002 67 212 5.0 0.0 0.00 0.00 0.00 69 1022.6
20260905151501 66 263 4.0 0.0 0.00 0.00 0.00 68 1022.5
20260905151002 66 263 7.0 0.0 0.00 0.00 0.00 67 1022.5
20260905150502 66 243 6.0 0.0 0.00 0.00 0.00 67 1022.5
20260905150001 66 260 6.0 0.0 0.00 0.00 0.00 67 1022.5
20260905145502 66 245 8.0 0.0 0.00 0.00 0.00 66 1022.6
20260905145002 67 254 7.0 0.0 0.00 0.00 0.00 63 1022.4
20260905144502 67 275 7.0 0.0 0.00 0.00 0.00 64 1022.6
20260905144001 68 243 3.0 0.0 0.00 0.00 0.00 65 1022.4
20260905143502 68 253 8.0 0.0 0.00 0.00 0.00 64 1022.4
20260905143001 68 243 8.0 0.0 0.00 0.00 0.00 64 1022.5
20260905142501 68 248 5.0 0.0 0.00 0.00 0.00 65 1022.7
20260905142001 69 272 10.0 0.0 0.00 0.00 0.00 68 1022.5
20260905141502 70 239 5.0 0.0 0.00 0.00 0.00 69 1022.5
20260905141002 69 263 6.0 0.0 0.00 0.00 0.00 67 1022.5
20260905140502 70 248 4.0 0.0 0.00 0.00 0.00 67 1022.5
20260905140002 70 266 3.0 0.0 0.00 0.00 0.00 67 1022.5
20260905135501 70 271 6.0 0.0 0.00 0.00 0.00 66 1022.4
20260905135002 70 266 6.0 0.0 0.00 0.00 0.00 68 1022.3
20260905134501 71 263 4.0 0.0 0.00 0.00 0.00 67 1022.4
20260905134002 70 284 7.0 0.0 0.00 0.00 0.00 67 1022.3
20260905133501 70 279 2.0 0.0 0.00 0.00 0.00 67 1022.4
20260905133001 71 241 4.0 0.0 0.00 0.00 0.00 67 1022.2
20260905132502 71 254 8.0 0.0 0.00 0.00 0.00 67 1022.2
20260905132001 71 250 4.0 0.0 0.00 0.00 0.00 69 1022.3
20260905131502 71 254 4.0 0.0 0.00 0.00 0.00 67 1022.2
20260905131001 70 250 4.0 0.0 0.00 0.00 0.00 70 1022.3
20260905130502 70 247 3.0 0.0 0.00 0.00 0.00 71 1022.2
20260905130001 70 251 5.0 0.0 0.00 0.00 0.00 70 1022.3
20260905125502 70 241 6.0 0.0 0.00 0.00 0.00 71 1022.3
20260905125001 70 272 5.0 0.0 0.00 0.00 0.00 71 1022.4
20260905124502 69 242 7.0 0.0 0.00 0.00 0.00 74 1022.4
20260905124002 70 241 7.0 0.0 0.00 0.00 0.00 73 1022.3
20260905123501 70 263 8.0 0.0 0.00 0.00 0.00 74 1022.3
20260905123002 69 243 8.0 0.0 0.00 0.00 0.00 74 1022.2
20260905122501 69 233 6.0 0.0 0.00 0.00 0.00 76 1022.3
20260905122002 68 209 7.0 0.0 0.00 0.00 0.00 79 1022.4
20260905121501 67 202 6.0 0.0 0.00 0.00 0.00 79 1022.3
20260905121002 68 195 5.0 0.0 0.00 0.00 0.00 77 1022.4
20260905120502 68 191 3.0 0.0 0.00 0.00 0.00 76 1022.4
20260905120002 67 240 4.0 0.0 0.00 0.00 0.00 76 1022.6
20260905115502 68 230 3.0 0.0 0.00 0.00 0.00 75 1022.5
20260905115001 68 244 2.0 0.0 0.00 0.00 0.00 75 1022.6
20260905114502 66 279 2.0 0.0 0.00 0.00 0.00 73 1022.5